SCP
0 0 0 0 0 0 0 0 0 0 0 0 0 0 0 0 0 0 0 0 0 0 0 0 0 0 1 1 1 0 0 0 0 0 0 0 0 0 0 0 0 0 0
1 1 0 0 0 0 0 0 0 0 0 0 0 0 0 0 0 0 0 0 0 0 0 0 0 1 1 1 1 0 0 0 0 0 0 0 0 0 0 0 0 0 0
1 1 0 0 0 0 0 0 0 0 0 0 0 0 0 0 0 0 0 0 0 0 0 0 0 1 1 1 1 1 0 0 0 0 0 0 0 0 0 0 0 0 0
1 1 1 0 0 0 0 0 0 0 0 1 0 0 0 0 0 0 0 0 0 0 0 0 0 1 1 1 1 1 0 0 0 0 0 0 0 0 0 0 0 0 0
1 0 1 0 0 1 0 0 1 1 1 1 1 0 0 0 0 0 0 0 0 0 -0 0 0 0 1 1 1 1 1 0 0 0 0 0 0 0 0 0 0 0 0
4 4 3 1 1 1 2 2 2 2 1 1 1 1 1 1 0 0 0 0 0 0 -0 0 0 0 0 0 1 1 1 1 1 0 0 0 0 0 0 0 0 0 0
4 5 5 5 5 3 2 2 2 2 1 0 1 1 1 1 1 1 0 0 0 0 -0 0 0 0 0 0 0 1 1 1 1 0 0 0 0 0 0 0 0 0 0
2 3 4 5 4 3 3 2 2 1 1 -0 1 1 2 2 2 4 1 1 1 0 -0 -0 -0 0 0 1 1 0 1 1 1 1 0 0 0 0 0 0 0 0 0
2 2 2 2 2 3 3 2 1 0 0 0 -0 0 1 2 2 1 2 1 2 0 0 0 -1 -0 0 1 1 1 0 1 1 1 1 0 0 0 0 0 0 0 0
2 1 1 1 1 1 1 1 1 1 1 0 0 1 -0 0 1 1 1 2 2 1 0 0 0 -0 -0 1 1 1 0 0 0 1 1 1 1 0 0 0 0 0 0
3 2 2 1 1 2 2 1 2 1 1 1 1 -0 0 -0 -0 0 0 1 2 2 2 0 1 0 0 -0 1 2 0 0 0 0 0 1 1 0 0 0 0 0 0
4 3 3 2 2 2 2 2 2 3 2 2 3 1 0 1 1 1 0 0 0 1 0 1 0 -0 -0 -0 0 1 0 0 0 0 0 0 0 0 0 0 0 0 0
2 3 3 3 3 2 2 2 3 2 2 3 4 3 2 0 1 1 1 0 0 0 -0 -0 -0 0 -1 0 -0 1 0 0 0 0 0 0 0 0 0 0 0 0 0
2 2 2 2 2 2 3 3 3 3 3 3 2 3 3 1 0 0 1 0 0 0 0 -0 -0 1 -1 -0 0 0 0 0 0 0 0 0 0 0 0 0 0 0 0
1 1 1 2 2 2 1 2 2 2 2 2 2 2 1 1 1 1 1 1 0 0 0 0 0 0 1 -0 -0 0 1 0 0 0 0 0 0 0 0 0 0 0 0
1 1 1 1 1 1 1 1 1 1 1 1 0 1 1 1 1 1 1 1 1 1 0 0 0 1 1 1 0 0 0 0 0 0 0 0 0 0 0 0 0 0 0
1 1 1 1 1 0 0 1 1 0 0 0 0 0 0 0 0 0 1 1 2 2 1 0 0 1 0 0 -0 0 0 0 0 0 0 0 0 0 0 0 0 0 0
0 1 0 0 0 0 0 0 0 0 0 0 0 0 0 0 0 0 0 1 1 1 1 0 0 1 -0 -0 -0 0 0 0 0 0 0 0 0 0 0 0 0 0 0
0 0 0 0 0 0 0 0 0 0 0 0 0 0 0 0 0 0 0 0 0 0 0 1 1 1 0 0 0 0 0 0 0 0 0 0 0 0 0 0 0 0 0
1 0 0 0 0 0 0 0 0 0 0 0 0 0 0 0 0 0 0 0 0 0 0 0 0 0 0 0 0 0 0 0 0 0 0 0 0 0 0 0 0 0 0
0 1 1 0 0 0 0 0 0 0 0 0 0 0 0 0 0 0 0 0 0 0 0 0 0 0 0 0 0 0 0 0 0 0 0 0 0 0 0 0 0 0 0
0 0 1 0 0 0 0 0 0 0 0 0 0 0 0 0 0 0 0 0 0 0 0 0 0 0 0 0 0 0 0 0 0 0 0 0 0 0 0 0 0 0 0
0 0 0 1 1 1 0 0 0 0 0 0 0 0 0 0 0 0 0 0 0 0 0 0 0 0 0 0 0 0 0 0 0 0 0 0 0 0 0 0 0 0 0
0 0 0 0 1 1 0 0 0 0 0 0 0 0 0 0 0 0 0 0 0 0 0 0 0 0 0 0 0 0 0 0 0 0 0 0 0 0 0 0 0 0 0
0 0 0 0 0 0 0 0 0 0 0 0 0 0 0 0 -0 0 -0 0 0 -0 0 -0 0 0 0 0 0 0 0 0 0 0 0 0 0 0 0 0 0 0 0
0 0 0 0 0 0 0 0 0 0 0 0 0 0 0 0 0 0 -0 0 0 0 0 0 0 0 0 0 0 0 0 0 0 0 0 0 0 0 0 0 0 0 0
Wind_Speed_500mb
46 43 42 39 36 33 29 25 24 23 19 18 19 17 15 15 19 17 19 20 21 17 17 16 15 19 21 23 20 15 18 20 20 23 25 26 26 25 28 28 26 26 28
46 44 43 42 42 38 35 31 32 32 27 25 24 24 21 22 23 23 24 22 23 22 19 17 16 15 19 22 23 19 17 23 25 26 28 29 27 27 28 32 30 29 30
44 44 46 44 45 43 40 38 38 39 34 31 28 29 28 28 30 27 26 24 23 23 21 18 18 16 18 24 24 24 21 21 23 26 25 29 26 28 29 32 34 32 32
46 43 47 51 49 44 46 43 40 41 37 33 32 33 33 33 32 31 29 25 25 23 21 20 21 20 18 23 23 22 23 22 23 23 25 29 28 26 31 32 34 35 35
52 34 33 41 50 44 43 39 35 32 35 37 33 27 31 37 36 36 29 28 27 26 18 18 21 22 24 23 27 25 25 25 26 26 26 32 33 29 29 33 34 36 37
64 83 52 53 41 36 33 29 30 39 40 40 37 32 30 38 29 25 25 25 18 14 5 10 19 23 25 27 30 31 32 32 28 31 29 31 35 36 32 33 35 36 38
75 90 72 72 69 55 47 34 31 32 49 46 42 33 22 24 13 5 12 8 5 5 3 6 15 18 24 25 31 32 32 37 34 35 33 31 37 37 35 34 36 36 37
72 77 84 95 87 71 55 54 51 37 42 50 32 28 13 10 15 34 6 6 5 20 12 27 25 16 21 26 28 31 32 34 34 37 31 30 34 36 36 34 36 36 36
68 72 80 81 87 89 87 70 88 82 64 58 27 18 6 2 32 3 10 8 5 17 26 29 21 24 20 24 30 33 34 32 32 37 35 30 30 33 32 34 36 36 36
66 67 68 62 65 78 76 63 56 67 70 60 36 23 23 20 9 13 22 29 16 18 34 49 39 27 25 31 29 37 36 35 35 37 37 33 30 28 31 32 35 36 36
57 52 55 62 65 69 71 65 66 60 59 96 77 57 35 29 27 25 35 31 51 46 42 64 54 51 44 45 49 48 35 40 42 37 35 35 31 29 28 29 33 36 36
61 59 64 65 66 71 75 64 74 78 75 76 85 89 59 49 58 51 48 52 47 61 62 71 79 56 54 52 52 40 46 39 38 42 36 36 35 33 30 28 30 34 35
57 57 59 61 63 65 61 59 60 71 75 76 82 78 82 71 67 59 46 51 64 60 77 81 75 72 65 55 54 36 40 38 38 45 40 37 36 34 33 30 31 32 33
47 47 50 53 56 58 60 63 66 67 61 54 60 60 59 68 60 64 66 59 56 70 69 71 72 64 65 58 56 34 33 39 35 36 42 41 37 36 36 33 31 31 32
34 35 37 40 45 49 50 50 51 50 49 51 52 55 58 54 52 52 45 41 48 58 63 55 65 57 56 65 58 42 28 31 28 37 44 44 41 39 37 34 34 33 32
24 32 33 36 40 42 43 44 44 41 43 44 46 48 50 53 55 55 44 46 46 51 56 56 62 53 62 60 52 38 32 37 51 42 45 43 44 42 39 36 36 35 34
23 26 25 32 36 36 37 38 36 32 28 28 31 36 40 45 44 44 46 44 48 45 52 60 57 54 70 61 53 40 38 41 41 48 47 44 46 43 39 36 37 37 36
26 26 28 28 30 30 23 22 22 14 9 8 12 14 18 24 33 35 29 32 38 39 44 53 59 60 83 63 57 48 36 34 36 49 51 44 46 43 38 36 39 38 36
39 38 35 34 35 35 31 26 23 19 15 13 13 15 15 16 19 22 26 30 35 46 47 48 51 50 76 64 59 45 40 36 36 52 47 45 44 42 38 37 39 40 38
58 50 47 45 45 45 44 39 35 31 26 24 22 22 20 22 25 28 31 34 36 45 42 41 43 51 58 65 61 50 44 39 40 48 44 46 43 41 39 40 41 43 43
77 64 63 61 60 60 58 55 52 47 40 35 34 32 31 30 32 35 37 39 43 38 39 40 48 46 55 63 62 50 50 42 43 45 49 45 43 41 42 42 44 45 46
74 79 80 75 71 73 71 67 61 57 52 46 44 41 39 40 44 47 49 49 49 49 52 45 49 51 63 67 62 49 45 45 43 51 44 42 41 39 38 40 42 43 46
49 67 76 82 85 82 78 74 68 65 62 57 51 47 45 41 50 55 57 57 57 54 53 54 65 66 61 66 62 53 43 35 34 35 26 25 30 30 27 31 39 42 44
55 57 60 66 76 84 81 76 75 71 69 64 59 52 49 51 54 57 59 61 61 58 50 50 58 64 70 60 49 41 36 33 39 34 29 18 25 25 27 29 38 40 40
60 62 64 66 67 65 67 64 62 68 71 72 67 59 55 55 57 57 57 62 67 63 50 53 50 53 49 39 32 34 37 38 27 22 32 17 19 18 23 24 26 27 35
73 70 70 74 72 75 74 66 62 68 72 73 73 70 64 62 61 61 60 60 66 55 45 41 40 35 41 35 34 31 32 35 27 23 24 25 18 15 14 22 29 29 28
Wind_Direction_500mb
236 242 247 247 250 255 259 265 269 265 261 250 243 242 249 252 269 274 280 271 270 278 287 288 279 261 254 253 250 253 264 269 272 280 283 281 271 260 258 255 252 243 238
240 246 251 259 265 266 271 271 274 272 271 268 259 264 268 270 269 276 283 278 267 266 275 281 281 275 262 256 250 255 271 272 276 281 284 283 272 259 254 254 250 246 238
249 258 264 263 263 272 275 276 276 273 273 276 277 277 278 276 277 276 273 277 278 268 269 276 278 274 268 253 251 262 262 274 281 286 279 280 273 262 254 252 249 246 242
256 263 271 271 269 273 276 279 281 278 277 273 282 291 291 287 279 273 265 267 273 275 264 267 272 271 269 252 242 258 274 272 270 279 276 275 275 266 257 254 249 248 247
255 267 286 286 275 270 274 282 285 281 285 287 283 287 305 310 294 276 268 265 266 270 258 268 269 271 263 259 251 258 270 280 269 268 274 273 275 271 259 254 250 248 249
237 257 251 273 280 267 256 263 287 292 291 292 293 292 310 319 297 272 271 258 268 251 244 296 286 280 266 259 257 263 270 280 278 269 271 279 274 269 268 255 248 249 249
236 248 242 249 252 262 253 255 273 284 300 296 298 292 303 321 341 243 263 267 175 339 287 39 307 289 278 270 262 262 269 274 283 277 278 279 274 268 265 259 249 248 248
232 235 236 245 255 249 247 259 260 264 303 296 288 312 322 14 122 352 311 157 11 314 263 317 310 300 294 279 272 261 264 267 277 281 280 271 274 268 263 256 251 249 245
236 238 240 244 246 256 250 263 262 247 265 275 270 286 297 202 318 9 284 245 298 329 312 322 303 293 304 299 283 270 256 266 267 274 280 279 276 266 262 257 253 250 245
233 235 240 245 246 252 252 265 249 231 238 266 283 294 290 295 324 315 298 307 275 289 313 306 316 310 323 311 296 280 266 268 264 266 274 274 273 275 265 257 252 250 245
232 237 236 238 244 247 244 255 253 248 254 249 267 276 293 295 292 295 303 300 307 303 287 301 296 298 314 327 308 273 267 269 261 261 269 268 270 275 272 263 255 248 245
242 244 242 240 241 245 246 250 250 254 251 248 251 260 267 285 276 276 283 292 295 306 306 294 300 297 305 325 322 274 254 269 262 263 264 269 267 272 276 269 258 249 248
233 235 234 232 236 238 239 239 240 239 245 249 250 256 257 268 273 280 271 289 277 292 302 300 298 283 299 314 318 281 265 262 263 252 257 265 266 272 274 275 263 251 246
229 229 229 231 232 234 237 240 241 245 247 245 246 251 254 262 277 278 272 271 286 289 293 295 301 294 294 290 311 298 280 257 261 258 254 261 267 274 272 274 261 247 247
226 231 234 237 239 240 239 240 241 244 249 254 259 262 265 270 276 277 278 275 269 271 276 285 291 294 277 286 296 298 277 253 248 273 244 257 265 269 272 267 255 244 243
228 229 228 227 228 228 231 234 240 244 248 253 256 260 266 271 272 273 277 277 272 275 274 285 286 288 291 292 289 299 269 251 273 260 249 247 260 266 271 262 249 241 241
226 219 224 225 224 231 237 240 242 245 247 249 253 255 258 263 266 270 270 269 268 272 272 279 283 286 295 298 301 301 252 266 268 266 252 244 254 265 268 257 243 239 239
217 212 215 219 218 214 208 208 202 203 213 245 258 268 270 265 263 266 271 269 267 266 271 277 276 276 293 296 295 298 251 255 265 263 248 238 251 263 264 253 240 238 238
226 218 218 222 221 217 217 214 218 230 242 263 279 279 280 284 289 287 286 281 277 272 270 271 274 272 280 286 294 292 238 252 268 260 245 238 252 263 258 249 240 237 238
234 232 230 227 233 234 234 234 240 247 254 264 281 286 292 294 300 306 301 300 296 284 276 275 276 278 273 278 282 284 234 249 258 250 234 242 254 263 255 249 240 238 239
242 238 237 236 238 238 239 239 242 247 256 265 271 281 288 292 294 298 296 292 292 290 284 280 276 275 274 276 277 280 237 243 244 240 236 243 255 261 256 247 240 239 239
245 240 241 240 238 241 243 242 243 245 252 258 263 270 281 288 293 300 300 296 287 283 280 273 273 268 270 276 282 265 231 235 235 244 240 252 261 261 254 247 243 239 239
253 243 243 243 243 244 245 245 247 246 247 253 258 264 275 282 296 300 303 300 291 278 269 272 268 266 271 273 274 259 228 253 243 241 237 254 256 254 248 243 241 237 237
256 254 247 247 247 247 246 246 249 248 243 251 256 261 273 284 293 300 302 296 290 280 275 270 269 270 272 267 261 234 256 249 229 236 243 236 262 250 250 246 245 238 236
259 259 257 250 246 243 243 241 238 236 242 249 255 260 270 283 293 300 301 293 288 284 276 269 270 273 263 243 237 243 242 227 211 224 235 221 232 238 257 257 258 249 235
260 258 257 254 250 247 245 236 237 240 242 244 251 258 266 278 290 300 300 291 284 283 279 279 277 258 244 232 240 253 228 215 205 215 236 215 217 219 262 275 257 250 248
Wind_Speed_850mb
46 43 42 39 36 33 29 25 24 23 19 18 19 17 15 15 19 17 19 20 21 17 17 16 15 19 21 23 20 15 18 20 20 23 25 26 26 25 28 28 26 26 28
46 44 43 42 42 38 35 31 32 32 27 25 24 24 21 22 23 23 24 22 23 22 19 17 16 15 19 22 23 19 17 23 25 26 28 29 27 27 28 32 30 29 30
44 44 46 44 45 43 40 38 38 39 34 31 28 29 28 28 30 27 26 24 23 23 21 18 18 16 18 24 24 24 21 21 23 26 25 29 26 28 29 32 34 32 32
46 43 47 51 49 44 46 43 40 41 37 33 32 33 33 33 32 31 29 25 25 23 21 20 21 20 18 23 23 22 23 22 23 23 25 29 28 26 31 32 34 35 35
52 34 33 41 50 44 43 39 35 32 35 37 33 27 31 37 36 36 29 28 27 26 18 18 21 22 24 23 27 25 25 25 26 26 26 32 33 29 29 33 34 36 37
64 83 52 53 41 36 33 29 30 39 40 40 37 32 30 38 29 25 25 25 18 14 5 10 19 23 25 27 30 31 32 32 28 31 29 31 35 36 32 33 35 36 38
75 90 72 72 69 55 47 34 31 32 49 46 42 33 22 24 13 5 12 8 5 5 3 6 15 18 24 25 31 32 32 37 34 35 33 31 37 37 35 34 36 36 37
72 77 84 95 87 71 55 54 51 37 42 50 32 28 13 10 15 34 6 6 5 20 12 27 25 16 21 26 28 31 32 34 34 37 31 30 34 36 36 34 36 36 36
68 72 80 81 87 89 87 70 88 82 64 58 27 18 6 2 32 3 10 8 5 17 26 29 21 24 20 24 30 33 34 32 32 37 35 30 30 33 32 34 36 36 36
66 67 68 62 65 78 76 63 56 67 70 60 36 23 23 20 9 13 22 29 16 18 34 49 39 27 25 31 29 37 36 35 35 37 37 33 30 28 31 32 35 36 36
57 52 55 62 65 69 71 65 66 60 59 96 77 57 35 29 27 25 35 31 51 46 42 64 54 51 44 45 49 48 35 40 42 37 35 35 31 29 28 29 33 36 36
61 59 64 65 66 71 75 64 74 78 75 76 85 89 59 49 58 51 48 52 47 61 62 71 79 56 54 52 52 40 46 39 38 42 36 36 35 33 30 28 30 34 35
57 57 59 61 63 65 61 59 60 71 75 76 82 78 82 71 67 59 46 51 64 60 77 81 75 72 65 55 54 36 40 38 38 45 40 37 36 34 33 30 31 32 33
47 47 50 53 56 58 60 63 66 67 61 54 60 60 59 68 60 64 66 59 56 70 69 71 72 64 65 58 56 34 33 39 35 36 42 41 37 36 36 33 31 31 32
34 35 37 40 45 49 50 50 51 50 49 51 52 55 58 54 52 52 45 41 48 58 63 55 65 57 56 65 58 42 28 31 28 37 44 44 41 39 37 34 34 33 32
24 32 33 36 40 42 43 44 44 41 43 44 46 48 50 53 55 55 44 46 46 51 56 56 62 53 62 60 52 38 32 37 51 42 45 43 44 42 39 36 36 35 34
23 26 25 32 36 36 37 38 36 32 28 28 31 36 40 45 44 44 46 44 48 45 52 60 57 54 70 61 53 40 38 41 41 48 47 44 46 43 39 36 37 37 36
26 26 28 28 30 30 23 22 22 14 9 8 12 14 18 24 33 35 29 32 38 39 44 53 59 60 83 63 57 48 36 34 36 49 51 44 46 43 38 36 39 38 36
39 38 35 34 35 35 31 26 23 19 15 13 13 15 15 16 19 22 26 30 35 46 47 48 51 50 76 64 59 45 40 36 36 52 47 45 44 42 38 37 39 40 38
58 50 47 45 45 45 44 39 35 31 26 24 22 22 20 22 25 28 31 34 36 45 42 41 43 51 58 65 61 50 44 39 40 48 44 46 43 41 39 40 41 43 43
77 64 63 61 60 60 58 55 52 47 40 35 34 32 31 30 32 35 37 39 43 38 39 40 48 46 55 63 62 50 50 42 43 45 49 45 43 41 42 42 44 45 46
74 79 80 75 71 73 71 67 61 57 52 46 44 41 39 40 44 47 49 49 49 49 52 45 49 51 63 67 62 49 45 45 43 51 44 42 41 39 38 40 42 43 46
49 67 76 82 85 82 78 74 68 65 62 57 51 47 45 41 50 55 57 57 57 54 53 54 65 66 61 66 62 53 43 35 34 35 26 25 30 30 27 31 39 42 44
55 57 60 66 76 84 81 76 75 71 69 64 59 52 49 51 54 57 59 61 61 58 50 50 58 64 70 60 49 41 36 33 39 34 29 18 25 25 27 29 38 40 40
60 62 64 66 67 65 67 64 62 68 71 72 67 59 55 55 57 57 57 62 67 63 50 53 50 53 49 39 32 34 37 38 27 22 32 17 19 18 23 24 26 27 35
73 70 70 74 72 75 74 66 62 68 72 73 73 70 64 62 61 61 60 60 66 55 45 41 40 35 41 35 34 31 32 35 27 23 24 25 18 15 14 22 29 29 28
Wind_Direction_850mb
236 242 247 247 250 255 259 265 269 265 261 250 243 242 249 252 269 274 280 271 270 278 287 288 279 261 254 253 250 253 264 269 272 280 283 281 271 260 258 255 252 243 238
240 246 251 259 265 266 271 271 274 272 271 268 259 264 268 270 269 276 283 278 267 266 275 281 281 275 262 256 250 255 271 272 276 281 284 283 272 259 254 254 250 246 238
249 258 264 263 263 272 275 276 276 273 273 276 277 277 278 276 277 276 273 277 278 268 269 276 278 274 268 253 251 262 262 274 281 286 279 280 273 262 254 252 249 246 242
256 263 271 271 269 273 276 279 281 278 277 273 282 291 291 287 279 273 265 267 273 275 264 267 272 271 269 252 242 258 274 272 270 279 276 275 275 266 257 254 249 248 247
255 267 286 286 275 270 274 282 285 281 285 287 283 287 305 310 294 276 268 265 266 270 258 268 269 271 263 259 251 258 270 280 269 268 274 273 275 271 259 254 250 248 249
237 257 251 273 280 267 256 263 287 292 291 292 293 292 310 319 297 272 271 258 268 251 244 296 286 280 266 259 257 263 270 280 278 269 271 279 274 269 268 255 248 249 249
236 248 242 249 252 262 253 255 273 284 300 296 298 292 303 321 341 243 263 267 175 339 287 39 307 289 278 270 262 262 269 274 283 277 278 279 274 268 265 259 249 248 248
232 235 236 245 255 249 247 259 260 264 303 296 288 312 322 14 122 352 311 157 11 314 263 317 310 300 294 279 272 261 264 267 277 281 280 271 274 268 263 256 251 249 245
236 238 240 244 246 256 250 263 262 247 265 275 270 286 297 202 318 9 284 245 298 329 312 322 303 293 304 299 283 270 256 266 267 274 280 279 276 266 262 257 253 250 245
233 235 240 245 246 252 252 265 249 231 238 266 283 294 290 295 324 315 298 307 275 289 313 306 316 310 323 311 296 280 266 268 264 266 274 274 273 275 265 257 252 250 245
232 237 236 238 244 247 244 255 253 248 254 249 267 276 293 295 292 295 303 300 307 303 287 301 296 298 314 327 308 273 267 269 261 261 269 268 270 275 272 263 255 248 245
242 244 242 240 241 245 246 250 250 254 251 248 251 260 267 285 276 276 283 292 295 306 306 294 300 297 305 325 322 274 254 269 262 263 264 269 267 272 276 269 258 249 248
233 235 234 232 236 238 239 239 240 239 245 249 250 256 257 268 273 280 271 289 277 292 302 300 298 283 299 314 318 281 265 262 263 252 257 265 266 272 274 275 263 251 246
229 229 229 231 232 234 237 240 241 245 247 245 246 251 254 262 277 278 272 271 286 289 293 295 301 294 294 290 311 298 280 257 261 258 254 261 267 274 272 274 261 247 247
226 231 234 237 239 240 239 240 241 244 249 254 259 262 265 270 276 277 278 275 269 271 276 285 291 294 277 286 296 298 277 253 248 273 244 257 265 269 272 267 255 244 243
228 229 228 227 228 228 231 234 240 244 248 253 256 260 266 271 272 273 277 277 272 275 274 285 286 288 291 292 289 299 269 251 273 260 249 247 260 266 271 262 249 241 241
226 219 224 225 224 231 237 240 242 245 247 249 253 255 258 263 266 270 270 269 268 272 272 279 283 286 295 298 301 301 252 266 268 266 252 244 254 265 268 257 243 239 239
217 212 215 219 218 214 208 208 202 203 213 245 258 268 270 265 263 266 271 269 267 266 271 277 276 276 293 296 295 298 251 255 265 263 248 238 251 263 264 253 240 238 238
226 218 218 222 221 217 217 214 218 230 242 263 279 279 280 284 289 287 286 281 277 272 270 271 274 272 280 286 294 292 238 252 268 260 245 238 252 263 258 249 240 237 238
234 232 230 227 233 234 234 234 240 247 254 264 281 286 292 294 300 306 301 300 296 284 276 275 276 278 273 278 282 284 234 249 258 250 234 242 254 263 255 249 240 238 239
242 238 237 236 238 238 239 239 242 247 256 265 271 281 288 292 294 298 296 292 292 290 284 280 276 275 274 276 277 280 237 243 244 240 236 243 255 261 256 247 240 239 239
245 240 241 240 238 241 243 242 243 245 252 258 263 270 281 288 293 300 300 296 287 283 280 273 273 268 270 276 282 265 231 235 235 244 240 252 261 261 254 247 243 239 239
253 243 243 243 243 244 245 245 247 246 247 253 258 264 275 282 296 300 303 300 291 278 269 272 268 266 271 273 274 259 228 253 243 241 237 254 256 254 248 243 241 237 237
256 254 247 247 247 247 246 246 249 248 243 251 256 261 273 284 293 300 302 296 290 280 275 270 269 270 272 267 261 234 256 249 229 236 243 236 262 250 250 246 245 238 236
259 259 257 250 246 243 243 241 238 236 242 249 255 260 270 283 293 300 301 293 288 284 276 269 270 273 263 243 237 243 242 227 211 224 235 221 232 238 257 257 258 249 235
260 258 257 254 250 247 245 236 237 240 242 244 251 258 266 278 290 300 300 291 284 283 279 279 277 258 244 232 240 253 228 215 205 215 236 215 217 219 262 275 257 250 248